K5NCO Weather Reports


time (UTC)temp
F
wind
direction
speed
knots
gust
knots
rain 1hr
in
rain 24hr
in
rain mn
in
humidity
%
barometer
mb
20260507104525 58 358 5.2 7.8 0.00 0.00 0.00 93 1019.1
20260507104021 58 348 8.7 11.3 0.00 0.00 0.00 93 1018.9
20260507103517 58 326 1.7 3.5 0.00 0.00 0.00 93 1018.5
20260507103014 58 341 7.0 7.8 0.00 0.00 0.00 92 1017.9
20260507102510 58 41 3.5 5.2 0.00 0.00 0.00 92 1018.2
20260507102007 58 311 7.0 8.7 0.00 0.00 0.00 92 1018.3
20260507101502 58 352 2.6 2.6 0.00 0.00 0.00 92 1018.3
20260507100958 58 16 5.2 9.6 0.00 0.00 0.00 92 1018.3
20260507100456 58 5 7.0 9.6 0.00 0.00 0.00 92 1017.9
20260507095954 58 12 3.5 5.2 0.00 0.00 0.00 92 1018.4
20260507095452 58 15 2.6 3.5 0.00 0.00 0.00 92 1018.5
20260507094948 58 359 1.7 1.7 0.00 0.00 0.00 92 1018.7
20260507094444 58 342 4.3 8.7 0.00 0.00 0.00 92 1018.6
20260507093941 58 13 4.3 7.8 0.00 0.00 0.00 92 1018.3
20260507093439 58 335 1.7 5.2 0.00 0.00 0.00 92 1018.4
20260507092937 58 9 3.5 5.2 0.00 0.00 0.00 92 1018.2
20260507092433 58 348 5.2 7.8 0.00 0.00 0.00 91 1018.2
20260507091930 58 347 4.3 5.2 0.00 0.00 0.00 91 1018.3
20260507091426 58 339 1.7 1.7 0.00 0.00 0.00 91 1018.2
20260507090916 58 4 1.7 2.6 0.00 0.00 0.00 91 1017.9
20260507090413 58 339 2.6 2.6 0.00 0.00 0.00 92 1017.8
20260507085910 58 10 3.5 3.5 0.00 0.00 0.00 91 1017.5
20260507085407 58 8 3.5 3.5 0.00 0.00 0.00 91 1017.4
20260507084904 58 347 3.5 6.1 0.00 0.00 0.00 91 1017.4
20260507084401 58 340 2.6 3.5 0.00 0.00 0.00 91 1017.3
20260507083858 58 16 2.6 3.5 0.00 0.00 0.00 91 1017.8
20260507083354 58 342 3.5 3.5 0.00 0.00 0.00 91 1017.4
20260507082850 59 340 2.6 2.6 0.00 0.00 0.00 91 1017.4
20260507082346 58 350 1.7 2.6 0.00 0.00 0.00 91 1017.2
20260507081843 58 27 2.6 3.5 0.00 0.00 0.00 91 1017.2
20260507081339 59 351 2.6 3.5 0.00 0.00 0.00 91 1017.4
20260507080837 59 50 4.3 6.1 0.00 0.00 0.00 91 1017.4
20260507080332 59 12 6.1 7.0 0.00 0.00 0.00 91 1017.1
20260507075828 59 340 2.6 5.2 0.00 0.00 0.00 91 1016.7
20260507075324 59 21 2.6 3.5 0.00 0.00 0.00 91 1016.6
20260507074821 59 4 3.5 5.2 0.00 0.00 0.00 91 1016.8
20260507074318 59 50 3.5 6.1 0.00 0.00 0.00 90 1017.1
20260507073815 59 346 4.3 5.2 0.00 0.00 0.00 90 1017.2
20260507073312 59 37 1.7 1.7 0.00 0.00 0.00 90 1017.1
20260507072809 59 48 1.7 3.5 0.00 0.00 0.00 90 1016.8
20260507072308 59 47 3.5 5.2 0.00 0.00 0.00 90 1016.9
20260507071804 59 52 5.2 7.0 0.00 0.00 0.00 89 1016.8
20260507071300 59 17 3.5 6.1 0.00 0.00 0.00 89 1017.0
20260507070757 59 15 1.7 2.6 0.00 0.00 0.00 88 1017.2
20260507070254 59 320 2.6 6.1 0.00 0.00 0.00 88 1017.0
20260507065751 59 25 1.7 2.6 0.00 0.00 0.00 88 1017.0
20260507065247 59 1 4.3 6.1 0.00 0.00 0.00 88 1016.9
20260507064745 60 44 6.1 7.0 0.00 0.00 0.00 88 1016.8
20260507064244 60 51 5.2 6.1 0.00 0.00 0.00 87 1016.5
20260507063741 60 29 3.5 5.2 0.00 0.00 0.00 87 1016.4
20260507063237 60 11 5.2 7.0 0.00 0.00 0.00 87 1016.7
20260507062734 60 41 0.9 1.7 0.00 0.00 0.00 87 1017.0
20260507062232 60 318 5.2 7.8 0.00 0.00 0.00 87 1017.1
20260507061730 60 349 7.0 9.6 0.00 0.00 0.00 87 1016.6
20260507061227 60 25 3.5 7.8 0.00 0.00 0.00 87 1016.6
20260507060725 60 30 0.9 0.9 0.00 0.00 0.00 87 1017.2
20260507060222 60 2 3.5 3.5 0.00 0.00 0.00 87 1017.4
20260507055718 60 19 1.7 2.6 0.00 0.00 0.00 87 1017.2
20260507055213 60 4 2.6 3.5 0.00 0.00 0.00 86 1017.0
20260507054709 60 60 3.5 6.1 0.00 0.00 0.00 86 1016.9
20260507054207 60 14 0.9 1.7 0.00 0.00 0.00 86 1016.7
20260507053704 60 359 3.5 3.5 0.00 0.00 0.00 86 1016.6
20260507053202 60 16 2.6 3.5 0.00 0.00 0.00 86 1016.7
20260507052701 60 32 1.7 2.6 0.00 0.00 0.00 86 1016.7
20260507052156 60 47 3.5 5.2 0.00 0.00 0.00 86 1016.6
20260507051654 61 60 3.5 3.5 0.00 0.00 0.00 86 1016.5
20260507051150 61 33 1.7 2.6 0.00 0.00 0.00 86 1016.7
20260507050648 61 11 5.2 7.0 0.00 0.00 0.00 86 1016.9
20260507050144 61 323 1.7 2.6 0.00 0.00 0.00 86 1017.0
20260507045641 61 24 2.6 2.6 0.00 0.00 0.00 85 1016.6
20260507045138 61 353 6.1 7.8 0.00 0.00 0.00 85 1016.6
20260507044634 61 348 5.2 7.0 0.00 0.00 0.00 85 1017.2
20260507044126 61 10 1.7 3.5 0.00 0.00 0.00 85 1017.0
20260507043621 61 36 5.2 7.0 0.00 0.00 0.00 85 1016.8
20260507043119 61 17 4.3 7.8 0.00 0.00 0.00 84 1017.0
20260507042614 61 53 6.1 9.6 0.00 0.00 0.00 85 1017.1
20260507042104 61 48 3.5 7.0 0.00 0.00 0.00 85 1016.8
20260507041601 61 18 2.6 3.5 0.00 0.00 0.00 85 1017.1
20260507041058 61 353 6.1 7.8 0.00 0.00 0.00 85 1017.0
20260507040555 61 12 4.3 7.0 0.00 0.00 0.00 85 1017.0
20260507040051 61 323 2.6 5.2 0.00 0.00 0.00 86 1017.1
20260507035547 61 319 7.0 7.8 0.00 0.00 0.00 86 1017.2
20260507035044 61 24 8.7 11.3 0.00 0.00 0.00 86 1017.0
20260507034540 61 340 4.3 5.2 0.00 0.00 0.00 86 1016.8
20260507034038 61 357 5.2 8.7 0.00 0.00 0.00 86 1017.1
20260507033536 61 3 4.3 6.1 0.00 0.00 0.00 86 1016.7
20260507033033 61 358 4.3 7.8 0.00 0.00 0.00 86 1016.6
20260507032530 61 41 5.2 7.0 0.00 0.00 0.00 86 1016.6
20260507032026 61 355 4.3 6.1 0.00 0.00 0.00 86 1017.0
20260507031522 61 4 0.9 0.9 0.00 0.00 0.00 86 1016.7
20260507031020 61 341 7.8 11.3 0.00 0.00 0.00 86 1016.7
20260507030516 61 359 3.5 5.2 0.00 0.00 0.00 86 1016.5
20260507030009 61 333 5.2 7.0 0.00 0.00 0.00 86 1016.3
20260507025505 61 348 3.5 3.5 0.00 0.00 0.00 85 1016.5
20260507025003 61 32 2.6 2.6 0.00 0.00 0.00 85 1016.6
20260507024501 62 336 6.1 7.0 0.00 0.00 0.00 85 1016.6
20260507023956 61 295 1.7 1.7 0.00 0.00 0.00 86 1016.3
20260507023453 61 4 3.5 5.2 0.00 0.00 0.00 85 1016.3
20260507022950 62 15 1.7 2.6 0.00 0.00 0.00 85 1016.3
20260507022447 62 357 2.6 3.5 0.00 0.00 0.00 85 1016.0
20260507021942 62 353 3.5 3.5 0.00 0.00 0.00 85 1015.9
20260507021437 62 353 3.5 3.5 0.00 0.00 0.00 85 1015.9
20260507020930 62 283 0.9 1.7 0.00 0.00 0.00 85 1016.0
20260507020426 62 339 5.2 7.0 0.00 0.00 0.00 85 1015.7
20260507015924 62 331 3.5 3.5 0.00 0.00 0.00 85 1015.9
20260507015422 62 356 3.5 5.2 0.00 0.00 0.00 85 1015.6
20260507014919 62 325 4.3 6.1 0.00 0.00 0.00 85 1015.6
20260507014415 62 319 3.5 5.2 0.00 0.00 0.00 86 1015.6
20260507013911 62 2 3.5 3.5 0.00 0.00 0.00 85 1015.2
20260507013408 62 357 4.3 6.1 0.00 0.00 0.00 85 1015.3
20260507012905 62 344 5.2 7.0 0.00 0.00 0.00 85 1015.0
20260507012401 62 321 5.2 7.0 0.00 0.00 0.00 85 1015.0
20260507011853 62 319 2.6 3.5 0.00 0.00 0.00 85 1015.1
20260507011349 62 340 4.3 6.1 0.00 0.00 0.00 85 1014.7
20260507010844 62 344 3.5 5.2 0.00 0.00 0.00 85 1015.2
20260507010340 62 293 5.2 7.8 0.00 0.00 0.00 84 1015.0
20260507005837 62 338 3.5 3.5 0.00 0.00 0.00 85 1014.6
20260507005334 62 353 3.5 5.2 0.00 0.00 0.00 85 1014.7
20260507004831 62 328 5.2 7.8 0.00 0.00 0.00 85 1014.6
20260507004328 62 343 5.2 7.0 0.00 0.00 0.00 85 1014.5
20260507003825 62 336 0.9 0.9 0.00 0.00 0.00 85 1014.7
20260507003321 62 344 3.5 3.5 0.00 0.00 0.00 84 1014.4
20260507002815 62 344 4.3 5.2 0.00 0.00 0.00 84 1014.4
20260507002311 62 329 2.6 2.6 0.00 0.00 0.00 85 1014.5
20260507001803 62 347 5.2 7.8 0.00 0.00 0.00 85 1014.6
20260507001301 62 337 6.1 11.3 0.00 0.00 0.00 85 1014.5
20260507000756 62 348 3.5 6.1 0.00 0.00 0.00 85 1014.7
20260507000252 62 318 2.6 2.6 0.00 0.00 0.00 85 1014.5
20260506235749 62 309 1.7 2.6 0.00 0.00 0.00 85 1014.1
20260506235244 62 341 3.5 5.2 0.00 0.00 0.00 85 1014.7
20260506234742 61 340 1.7 2.6 0.00 0.00 0.00 85 1014.5
20260506234239 61 359 5.2 7.0 0.00 0.00 0.00 85 1014.3
20260506233737 61 344 2.6 3.5 0.00 0.00 0.00 85 1014.2
20260506233233 61 326 4.3 5.2 0.00 0.00 0.00 85 1014.3
20260506232730 61 357 1.7 2.6 0.00 0.00 0.00 85 1014.3
20260506232224 61 337 5.2 6.1 0.00 0.00 0.00 85 1014.3
20260506231722 61 326 3.5 6.1 0.00 0.00 0.00 85 1014.2
20260506231220 61 332 4.3 6.1 0.00 0.00 0.00 85 1014.3
20260506230717 61 344 2.6 3.5 0.00 0.00 0.00 85 1014.3
20260506230214 61 357 5.2 7.0 0.00 0.00 0.00 86 1014.1
20260506225710 61 345 2.6 2.6 0.00 0.00 0.00 86 1014.3
20260506225207 61 277 3.5 3.5 0.00 0.00 0.00 86 1014.2
20260506224704 61 5 3.5 6.1 0.00 0.00 0.00 86 1014.0
20260506224201 61 342 3.5 6.1 0.00 0.00 0.00 86 1014.2
20260506223657 60 21 2.6 3.5 0.00 0.00 0.00 86 1014.2
20260506223153 61 349 5.2 7.8 0.00 0.00 0.00 86 1014.2
20260506222650 60 332 2.6 3.5 0.00 0.00 0.00 86 1014.2
20260506222145 60 326 3.5 3.5 0.00 0.00 0.00 87 1014.3
20260506221644 60 336 4.3 6.1 0.00 0.00 0.00 87 1014.3
20260506221142 60 326 7.8 12.2 0.00 0.00 0.00 86 1014.4
20260506220638 61 333 8.7 9.6 0.00 0.00 0.00 85 1014.3
20260506220133 61 320 7.0 8.7 0.00 0.00 0.00 86 1014.1
20260506215630 61 346 1.7 5.2 0.00 0.00 0.00 85 1014.0
20260506215125 62 307 1.7 1.7 0.00 0.00 0.00 85 1013.8
20260506214622 62 343 5.2 8.7 0.00 0.00 0.00 85 1014.0
20260506214120 63 334 5.2 6.1 0.00 0.00 0.00 83 1014.0
20260506213618 62 323 4.3 7.0 0.00 0.00 0.00 84 1013.9
20260506213115 62 312 2.6 5.2 0.00 0.00 0.00 85 1014.0
20260506212612 61 344 6.1 8.7 0.00 0.00 0.00 85 1014.2
20260506212107 62 298 3.5 5.2 0.00 0.00 0.00 84 1014.0
20260506211603 62 303 3.5 3.5 0.00 0.00 0.00 85 1014.3
20260506211100 62 273 7.8 11.3 0.00 0.00 0.00 84 1014.2
20260506210556 62 289 0.0 0.9 0.00 0.00 0.00 84 1014.2
20260506210053 62 340 7.8 13.0 0.00 0.00 0.00 84 1014.2
20260506205550 62 331 7.0 9.6 0.00 0.00 0.00 84 1014.6
20260506205045 62 344 7.0 7.8 0.00 0.00 0.00 84 1014.5
20260506204543 62 295 6.1 7.8 0.00 0.00 0.00 85 1014.7
20260506204040 62 305 10.4 12.2 0.00 0.00 0.00 84 1014.6
20260506203539 63 29 7.0 8.7 0.00 0.00 0.00 84 1014.6
20260506203035 63 287 6.1 7.8 0.00 0.00 0.00 84 1014.3
20260506202532 63 315 7.0 9.6 0.00 0.00 0.00 83 1014.4
20260506202028 64 293 7.0 7.8 0.00 0.00 0.00 82 1014.4
20260506201526 64 324 6.1 7.8 0.00 0.00 0.00 83 1014.0
20260506201022 65 325 3.5 9.6 0.00 0.00 0.00 83 1014.1
20260506200519 65 314 12.2 14.8 0.00 0.00 0.00 82 1014.1
20260506200016 65 323 7.8 9.6 0.00 0.00 0.00 82 1013.9
20260506195513 66 335 9.6 13.0 0.00 0.00 0.00 82 1013.9
20260506195009 66 324 8.7 11.3 0.00 0.00 0.00 83 1014.0
20260506194507 67 285 6.1 8.7 0.00 0.00 0.00 83 1013.9
20260506194003 66 335 7.8 9.6 0.00 0.00 0.00 84 1013.7
20260506193501 67 12 8.7 13.9 0.00 0.00 0.00 82 1014.0
20260506192956 67 321 6.1 7.8 0.00 0.00 0.00 83 1013.7
20260506192454 67 316 5.2 7.0 0.00 0.00 0.00 83 1013.9
20260506191950 68 350 3.5 5.2 0.00 0.00 0.00 82 1013.8
20260506191447 68 285 7.0 8.7 0.00 0.00 0.00 82 1013.9
20260506190943 69 324 5.2 6.1 0.00 0.00 0.00 81 1013.8
20260506190440 70 288 6.1 7.8 0.00 0.00 0.00 80 1013.9
20260506185937 70 270 7.0 9.6 0.00 0.00 0.00 80 1013.9
20260506185434 71 346 3.5 6.1 0.00 0.00 0.00 80 1013.7
20260506184931 71 15 3.5 6.1 0.00 0.00 0.00 79 1013.7
20260506184428 71 305 6.1 7.0 0.00 0.00 0.00 80 1013.7
20260506183925 70 350 5.2 7.0 0.00 0.00 0.00 81 1013.6
20260506183420 72 311 5.2 7.0 0.00 0.00 0.00 78 1013.7
20260506182918 71 356 1.7 2.6 0.00 0.00 0.00 79 1013.7
20260506182415 70 39 5.2 7.0 0.00 0.00 0.00 80 1013.7
20260506181912 70 332 4.3 6.1 0.00 0.00 0.00 80 1013.5
20260506181410 70 356 3.5 3.5 0.00 0.00 0.00 80 1014.1
20260506180907 70 329 2.6 3.5 0.00 0.00 0.00 80 1013.7
20260506180403 71 338 0.0 0.9 0.00 0.00 0.00 81 1013.5
20260506175900 69 29 3.5 3.5 0.00 0.00 0.00 81 1013.5
20260506175356 68 311 6.1 7.0 0.00 0.00 0.00 83 1013.2
20260506174853 68 65 4.3 6.1 0.00 0.00 0.00 84 1013.4
20260506174351 68 8 3.5 3.5 0.00 0.00 0.00 83 1013.1
20260506173848 68 359 5.2 6.1 0.00 0.00 0.00 84 1013.1
20260506173345 67 76 1.7 6.1 0.00 0.00 0.00 84 1013.4
20260506172842 66 32 3.5 5.2 0.00 0.00 0.00 85 1013.6
20260506172338 67 25 2.6 3.5 0.00 0.00 0.00 85 1013.7
20260506171836 65 323 2.6 2.6 0.00 0.00 0.00 87 1013.4
20260506171333 66 26 1.7 2.6 0.00 0.00 0.00 86 1013.5
20260506170831 65 33 1.7 5.2 0.00 0.00 0.00 88 1013.6
20260506170326 64 27 7.0 11.3 0.00 0.00 0.00 88 1013.6
20260506165825 63 43 3.5 5.2 0.00 0.00 0.00 89 1013.7
20260506165323 64 45 4.3 5.2 0.00 0.00 0.00 89 1013.9
20260506164814 63 44 0.9 2.6 0.00 0.00 0.00 90 1014.0
20260506164310 63 25 3.5 7.0 0.00 0.00 0.00 89 1014.3
20260506163808 63 7 5.2 7.8 0.00 0.00 0.00 89 1014.7
20260506163302 63 351 1.7 1.7 0.00 0.00 0.00 90 1014.4
20260506162758 62 21 0.9 2.6 0.00 0.00 0.00 92 1014.4
20260506162256 61 56 0.9 1.7 0.00 0.00 0.00 93 1014.8
20260506161753 61 25 6.1 8.7 0.00 0.00 0.00 94 1014.5
20260506161250 61 333 4.3 13.9 0.00 0.00 0.00 95 1015.1
20260506160747 61 332 7.8 11.3 0.00 0.00 0.00 96 1015.5
20260506160244 61 331 7.0 7.8 0.00 0.00 0.00 96 1015.8
20260506155743 62 36 5.2 9.6 0.00 0.00 0.00 95 1015.2
20260506155239 62 359 2.6 5.2 0.00 0.00 0.00 95 1015.3
20260506153347 64 321 7.8 8.7 0.00 0.00 0.00 94 1014.9
20260506152844 65 327 7.8 9.6 0.00 0.00 0.00 94 1014.8
20260506152341 65 10 6.1 7.8 0.00 0.00 0.00 94 1014.5
20260506151839 65 319 6.1 9.6 0.00 0.00 0.00 94 1014.2
20260506151336 66 347 6.1 9.6 0.00 0.00 0.00 93 1013.9
20260506150833 66 344 7.0 8.7 0.00 0.00 0.00 93 1013.9
20260506150330 66 294 13.0 18.2 0.00 0.00 0.00 93 1013.7
20260506145827 67 25 5.2 7.0 0.00 0.00 0.00 92 1013.4
20260506145323 68 27 7.0 13.0 0.00 0.00 0.00 91 1013.1
20260506144821 71 322 6.1 8.7 0.00 0.00 0.00 90 1012.5
20260506144317 77 16 6.1 11.3 0.00 0.00 0.00 86 1012.4
20260506143815 77 157 0.9 0.9 0.00 0.00 0.00 89 1012.2